owner,sensor,date,latitude,longitude,relative_humidity,qcFlag 
LUMCON,ioos:station:LUMCON:101:1,2014-12-02T06:45:00Z,29.2533,-90.6633,92.2,1111122 
LUMCON,ioos:station:LUMCON:101:1,2014-12-02T14:45:00Z,29.2533,-90.6633,68.1,1111122 
LUMCON,ioos:station:LUMCON:101:1,2014-12-03T01:45:00Z,29.2533,-90.6633,86.4,1111122 
LUMCON,ioos:station:LUMCON:101:1,2014-12-03T13:45:00Z,29.2533,-90.6633,78.4,1111122 
LUMCON,ioos:station:LUMCON:101:1,2014-12-03T20:45:00Z,29.2533,-90.6633,86.5,1111122 
LUMCON,ioos:station:LUMCON:101:1,2014-12-04T05:45:00Z,29.2533,-90.6633,92.1,1111122 
LUMCON,ioos:station:LUMCON:101:1,2014-12-04T12:45:00Z,29.2533,-90.6633,80.5,1111122 
LUMCON,ioos:station:LUMCON:101:1,2014-12-04T13:45:00Z,29.2533,-90.6633,77.2,1111122 
LUMCON,ioos:station:LUMCON:101:1,2014-12-04T14:45:00Z,29.2533,-90.6633,76.8,1111122 
LUMCON,ioos:station:LUMCON:101:1,2014-12-04T15:45:00Z,29.2533,-90.6633,77.6,1111122 
LUMCON,ioos:station:LUMCON:101:1,2014-12-04T16:45:00Z,29.2533,-90.6633,79.7,1111122 
LUMCON,ioos:station:LUMCON:101:1,2014-12-04T17:45:00Z,29.2533,-90.6633,84.6,1111122 
LUMCON,ioos:station:LUMCON:101:1,2014-12-04T18:45:00Z,29.2533,-90.6633,86.1,1111122 
LUMCON,ioos:station:LUMCON:101:1,2014-12-04T19:45:00Z,29.2533,-90.6633,87.8,1111122 
LUMCON,ioos:station:LUMCON:101:1,2014-12-04T20:45:00Z,29.2533,-90.6633,88.6,1111122 
LUMCON,ioos:station:LUMCON:101:1,2014-12-04T21:45:00Z,29.2533,-90.6633,89.5,1111122 
LUMCON,ioos:station:LUMCON:101:1,2014-12-04T22:45:00Z,29.2533,-90.6633,90.2,1111122 
LUMCON,ioos:station:LUMCON:101:1,2014-12-04T23:45:00Z,29.2533,-90.6633,90.3,1111122 
LUMCON,ioos:station:LUMCON:101:1,2014-12-05T00:45:00Z,29.2533,-90.6633,90.4,1111122 
LUMCON,ioos:station:LUMCON:101:1,2014-12-05T01:45:00Z,29.2533,-90.6633,90.2,1111122 
LUMCON,ioos:station:LUMCON:101:1,2014-12-05T02:45:00Z,29.2533,-90.6633,90.0,1111122 
LUMCON,ioos:station:LUMCON:101:1,2014-12-05T03:45:00Z,29.2533,-90.6633,90.6,1111122 
LUMCON,ioos:station:LUMCON:101:1,2014-12-05T04:45:00Z,29.2533,-90.6633,91.2,1111122 
LUMCON,ioos:station:LUMCON:101:1,2014-12-05T05:45:00Z,29.2533,-90.6633,90.8,1111122 
LUMCON,ioos:station:LUMCON:101:1,2014-12-05T06:45:00Z,29.2533,-90.6633,90.2,1111122 
LUMCON,ioos:station:LUMCON:101:1,2014-12-05T07:45:00Z,29.2533,-90.6633,89.1,1111122 
LUMCON,ioos:station:LUMCON:101:1,2014-12-05T08:45:00Z,29.2533,-90.6633,87.8,1111122 
LUMCON,ioos:station:LUMCON:101:1,2014-12-05T09:45:00Z,29.2533,-90.6633,84.5,1111122 
LUMCON,ioos:station:LUMCON:101:1,2014-12-05T10:45:00Z,29.2533,-90.6633,79.3,1111122 
LUMCON,ioos:station:LUMCON:101:1,2014-12-05T11:45:00Z,29.2533,-90.6633,80.3,1111122 
LUMCON,ioos:station:LUMCON:101:1,2014-12-05T12:45:00Z,29.2533,-90.6633,77.5,1111122 
LUMCON,ioos:station:LUMCON:101:1,2014-12-05T13:45:00Z,29.2533,-90.6633,77.3,1111122 
LUMCON,ioos:station:LUMCON:101:1,2014-12-05T14:45:00Z,29.2533,-90.6633,76.9,1111122 
LUMCON,ioos:station:LUMCON:101:1,2014-12-05T15:45:00Z,29.2533,-90.6633,76.4,1111122 
LUMCON,ioos:station:LUMCON:101:1,2014-12-05T16:45:00Z,29.2533,-90.6633,79.3,1111122 
LUMCON,ioos:station:LUMCON:101:1,2014-12-05T17:45:00Z,29.2533,-90.6633,84.4,1111122 
LUMCON,ioos:station:LUMCON:101:1,2014-12-05T18:45:00Z,29.2533,-90.6633,86.9,1111122 
LUMCON,ioos:station:LUMCON:101:1,2014-12-05T19:45:00Z,29.2533,-90.6633,88.2,1111122 
LUMCON,ioos:station:LUMCON:101:1,2014-12-05T20:45:00Z,29.2533,-90.6633,87.7,1111122 
LUMCON,ioos:station:LUMCON:101:1,2014-12-05T21:45:00Z,29.2533,-90.6633,88.8,1111122 
LUMCON,ioos:station:LUMCON:101:1,2014-12-05T22:45:00Z,29.2533,-90.6633,89.1,1111122 
LUMCON,ioos:station:LUMCON:101:1,2014-12-05T23:45:00Z,29.2533,-90.6633,89.9,1111122 
LUMCON,ioos:station:LUMCON:101:1,2014-12-06T00:45:00Z,29.2533,-90.6633,90.6,1111122 
LUMCON,ioos:station:LUMCON:101:1,2014-12-06T02:45:00Z,29.2533,-90.6633,90.8,1111122 
LUMCON,ioos:station:LUMCON:101:1,2014-12-06T03:45:00Z,29.2533,-90.6633,90.9,1111122 
LUMCON,ioos:station:LUMCON:101:1,2014-12-06T04:45:00Z,29.2533,-90.6633,91.0,1111122 
LUMCON,ioos:station:LUMCON:101:1,2014-12-06T05:45:00Z,29.2533,-90.6633,91.1,1111122 
LUMCON,ioos:station:LUMCON:101:1,2014-12-06T06:45:00Z,29.2533,-90.6633,91.6,1111122 
LUMCON,ioos:station:LUMCON:101:1,2014-12-06T07:45:00Z,29.2533,-90.6633,91.8,1111122 
LUMCON,ioos:station:LUMCON:101:1,2014-12-06T08:45:00Z,29.2533,-90.6633,91.4,1111122 
LUMCON,ioos:station:LUMCON:101:1,2014-12-06T09:45:00Z,29.2533,-90.6633,87.9,1111122 
LUMCON,ioos:station:LUMCON:101:1,2014-12-06T10:45:00Z,29.2533,-90.6633,82.8,1111122 
LUMCON,ioos:station:LUMCON:101:1,2014-12-06T11:45:00Z,29.2533,-90.6633,72.1,1111122 
LUMCON,ioos:station:LUMCON:101:1,2014-12-06T12:45:00Z,29.2533,-90.6633,66.9,1111122 
LUMCON,ioos:station:LUMCON:101:1,2014-12-06T13:45:00Z,29.2533,-90.6633,66.6,1111122 
LUMCON,ioos:station:LUMCON:101:1,2014-12-06T14:45:00Z,29.2533,-90.6633,68.0,1111122 
LUMCON,ioos:station:LUMCON:101:1,2014-12-06T15:45:00Z,29.2533,-90.6633,64.8,1111122 
LUMCON,ioos:station:LUMCON:101:1,2014-12-06T16:45:00Z,29.2533,-90.6633,61.9,1111122 
LUMCON,ioos:station:LUMCON:101:1,2014-12-06T17:45:00Z,29.2533,-90.6633,73.1,1111122 
LUMCON,ioos:station:LUMCON:101:1,2014-12-06T18:45:00Z,29.2533,-90.6633,77.8,1111122 
LUMCON,ioos:station:LUMCON:101:1,2014-12-06T19:45:00Z,29.2533,-90.6633,82.0,1111122 
LUMCON,ioos:station:LUMCON:101:1,2014-12-06T20:45:00Z,29.2533,-90.6633,84.6,1111122 
LUMCON,ioos:station:LUMCON:101:1,2014-12-06T21:45:00Z,29.2533,-90.6633,73.9,1111122 
LUMCON,ioos:station:LUMCON:101:1,2014-12-06T22:45:00Z,29.2533,-90.6633,72.4,1111122 
LUMCON,ioos:station:LUMCON:101:1,2014-12-06T23:45:00Z,29.2533,-90.6633,72.0,1111122 
LUMCON,ioos:station:LUMCON:101:1,2014-12-07T00:45:00Z,29.2533,-90.6633,73.0,1111122 
LUMCON,ioos:station:LUMCON:101:1,2014-12-07T01:45:00Z,29.2533,-90.6633,76.2,1111122 
LUMCON,ioos:station:LUMCON:101:1,2014-12-07T02:45:00Z,29.2533,-90.6633,77.1,1111122 
LUMCON,ioos:station:LUMCON:101:1,2014-12-07T03:45:00Z,29.2533,-90.6633,71.9,1111122 
LUMCON,ioos:station:LUMCON:101:1,2014-12-07T04:45:00Z,29.2533,-90.6633,74.4,1111122 
LUMCON,ioos:station:LUMCON:101:1,2014-12-07T05:45:00Z,29.2533,-90.6633,78.2,1111122 
LUMCON,ioos:station:LUMCON:101:1,2014-12-07T06:45:00Z,29.2533,-90.6633,77.7,1111122 
LUMCON,ioos:station:LUMCON:101:1,2014-12-07T07:45:00Z,29.2533,-90.6633,79.4,1111122 
LUMCON,ioos:station:LUMCON:101:1,2014-12-07T08:45:00Z,29.2533,-90.6633,78.7,1111122 
LUMCON,ioos:station:LUMCON:101:1,2014-12-07T09:45:00Z,29.2533,-90.6633,76.8,1111122 
LUMCON,ioos:station:LUMCON:101:1,2014-12-07T10:45:00Z,29.2533,-90.6633,75.6,1111122 
LUMCON,ioos:station:LUMCON:101:1,2014-12-07T11:45:00Z,29.2533,-90.6633,75.1,1111122 
LUMCON,ioos:station:LUMCON:101:1,2014-12-07T12:45:00Z,29.2533,-90.6633,73.9,1111122 
LUMCON,ioos:station:LUMCON:101:1,2014-12-07T13:45:00Z,29.2533,-90.6633,72.3,1111122 
LUMCON,ioos:station:LUMCON:101:1,2014-12-07T14:45:00Z,29.2533,-90.6633,71.6,1111122 
LUMCON,ioos:station:LUMCON:101:1,2014-12-07T15:45:00Z,29.2533,-90.6633,71.3,1111122 
LUMCON,ioos:station:LUMCON:101:1,2014-12-07T16:45:00Z,29.2533,-90.6633,70.1,1111122 
LUMCON,ioos:station:LUMCON:101:1,2014-12-07T17:45:00Z,29.2533,-90.6633,70.4,1111122 
LUMCON,ioos:station:LUMCON:101:1,2014-12-07T18:45:00Z,29.2533,-90.6633,72.8,1111122 
LUMCON,ioos:station:LUMCON:101:1,2014-12-07T19:45:00Z,29.2533,-90.6633,73.4,1111122 
LUMCON,ioos:station:LUMCON:101:1,2014-12-07T20:45:00Z,29.2533,-90.6633,72.3,1111122 
LUMCON,ioos:station:LUMCON:101:1,2014-12-07T21:45:00Z,29.2533,-90.6633,76.4,1111122 
LUMCON,ioos:station:LUMCON:101:1,2014-12-07T22:45:00Z,29.2533,-90.6633,75.1,1111122 
LUMCON,ioos:station:LUMCON:101:1,2014-12-07T23:45:00Z,29.2533,-90.6633,77.5,1111122 
LUMCON,ioos:station:LUMCON:101:1,2014-12-08T00:45:00Z,29.2533,-90.6633,77.4,1111122 
LUMCON,ioos:station:LUMCON:101:1,2014-12-08T01:45:00Z,29.2533,-90.6633,81.6,1111122 
LUMCON,ioos:station:LUMCON:101:1,2014-12-08T02:45:00Z,29.2533,-90.6633,79.8,1111122 
LUMCON,ioos:station:LUMCON:101:1,2014-12-08T03:45:00Z,29.2533,-90.6633,81.7,1111122 
LUMCON,ioos:station:LUMCON:101:1,2014-12-08T04:45:00Z,29.2533,-90.6633,80.8,1111122 
LUMCON,ioos:station:LUMCON:101:1,2014-12-08T05:45:00Z,29.2533,-90.6633,81.4,1111122 
LUMCON,ioos:station:LUMCON:101:1,2014-12-08T06:45:00Z,29.2533,-90.6633,80.2,1111122 
LUMCON,ioos:station:LUMCON:101:1,2014-12-08T07:45:00Z,29.2533,-90.6633,82.8,1111122 
LUMCON,ioos:station:LUMCON:101:1,2014-12-08T08:45:00Z,29.2533,-90.6633,83.0,1111122 
LUMCON,ioos:station:LUMCON:101:1,2014-12-08T09:45:00Z,29.2533,-90.6633,78.4,1111122 
LUMCON,ioos:station:LUMCON:101:1,2014-12-08T10:45:00Z,29.2533,-90.6633,77.3,1111122 
LUMCON,ioos:station:LUMCON:101:1,2014-12-08T11:45:00Z,29.2533,-90.6633,70.5,1111122 
LUMCON,ioos:station:LUMCON:101:1,2014-12-08T12:45:00Z,29.2533,-90.6633,62.6,1111122 
LUMCON,ioos:station:LUMCON:101:1,2014-12-08T13:45:00Z,29.2533,-90.6633,61.5,1111122 
LUMCON,ioos:station:LUMCON:101:1,2014-12-08T14:45:00Z,29.2533,-90.6633,57.5,1111122 
LUMCON,ioos:station:LUMCON:101:1,2014-12-08T17:45:00Z,29.2533,-90.6633,55.9,1111122 
LUMCON,ioos:station:LUMCON:101:1,2014-12-08T18:45:00Z,29.2533,-90.6633,64.4,1111122 
LUMCON,ioos:station:LUMCON:101:1,2014-12-08T19:45:00Z,29.2533,-90.6633,68.8,1111122 
LUMCON,ioos:station:LUMCON:101:1,2014-12-08T20:45:00Z,29.2533,-90.6633,65.1,1111122 
LUMCON,ioos:station:LUMCON:101:1,2014-12-08T21:45:00Z,29.2533,-90.6633,70.6,1111122 
LUMCON,ioos:station:LUMCON:101:1,2014-12-08T22:45:00Z,29.2533,-90.6633,75.8,1111122 
LUMCON,ioos:station:LUMCON:101:1,2014-12-08T23:45:00Z,29.2533,-90.6633,72.1,1111122 
LUMCON,ioos:station:LUMCON:101:1,2014-12-09T00:45:00Z,29.2533,-90.6633,74.4,1111122 
LUMCON,ioos:station:LUMCON:101:1,2014-12-09T01:45:00Z,29.2533,-90.6633,76.9,1111122 
LUMCON,ioos:station:LUMCON:101:1,2014-12-09T02:45:00Z,29.2533,-90.6633,77.9,1111122 
LUMCON,ioos:station:LUMCON:101:1,2014-12-09T03:45:00Z,29.2533,-90.6633,78.1,1111122 
LUMCON,ioos:station:LUMCON:101:1,2014-12-09T04:45:00Z,29.2533,-90.6633,78.4,1111122 
LUMCON,ioos:station:LUMCON:101:1,2014-12-09T05:45:00Z,29.2533,-90.6633,80.5,1111122 
LUMCON,ioos:station:LUMCON:101:1,2014-12-09T06:45:00Z,29.2533,-90.6633,78.9,1111122 
LUMCON,ioos:station:LUMCON:101:1,2014-12-09T07:45:00Z,29.2533,-90.6633,82.0,1111122 
LUMCON,ioos:station:LUMCON:101:1,2014-12-09T08:45:00Z,29.2533,-90.6633,76.0,1111122 
LUMCON,ioos:station:LUMCON:101:1,2014-12-09T09:45:00Z,29.2533,-90.6633,71.8,1111122 
LUMCON,ioos:station:LUMCON:101:1,2014-12-09T10:45:00Z,29.2533,-90.6633,62.3,1111122 
LUMCON,ioos:station:LUMCON:101:1,2014-12-09T11:45:00Z,29.2533,-90.6633,55.8,1111122 
LUMCON,ioos:station:LUMCON:101:1,2014-12-09T12:45:00Z,29.2533,-90.6633,60.1,1111122 
LUMCON,ioos:station:LUMCON:101:1,2014-12-09T13:45:00Z,29.2533,-90.6633,49.2,1111122 
LUMCON,ioos:station:LUMCON:101:1,2014-12-09T14:45:00Z,29.2533,-90.6633,42.3,1111122 
LUMCON,ioos:station:LUMCON:101:1,2014-12-09T15:45:00Z,29.2533,-90.6633,40.4,1111122 
LUMCON,ioos:station:LUMCON:101:1,2014-12-09T16:45:00Z,29.2533,-90.6633,61.4,1111122 
LUMCON,ioos:station:LUMCON:101:1,2014-12-09T17:45:00Z,29.2533,-90.6633,64.3,1111122 
LUMCON,ioos:station:LUMCON:101:1,2014-12-10T14:45:00Z,29.2533,-90.6633,57.0,1111122 
LUMCON,ioos:station:LUMCON:101:1,2014-12-10T15:45:00Z,29.2533,-90.6633,53.6,1111122 
LUMCON,ioos:station:LUMCON:101:1,2014-12-10T16:45:00Z,29.2533,-90.6633,54.0,1111122 
LUMCON,ioos:station:LUMCON:101:1,2014-12-10T17:45:00Z,29.2533,-90.6633,59.1,1111122 
LUMCON,ioos:station:LUMCON:101:1,2014-12-10T18:45:00Z,29.2533,-90.6633,63.7,1111122 
LUMCON,ioos:station:LUMCON:101:1,2014-12-10T19:45:00Z,29.2533,-90.6633,58.2,1111122 
LUMCON,ioos:station:LUMCON:101:1,2014-12-10T21:45:00Z,29.2533,-90.6633,65.5,1111122 
LUMCON,ioos:station:LUMCON:101:1,2014-12-10T22:45:00Z,29.2533,-90.6633,62.3,1111122 
LUMCON,ioos:station:LUMCON:101:1,2014-12-10T23:45:00Z,29.2533,-90.6633,58.2,1111122 
LUMCON,ioos:station:LUMCON:101:1,2014-12-11T00:45:00Z,29.2533,-90.6633,63.5,1111122 
LUMCON,ioos:station:LUMCON:101:1,2014-12-11T01:45:00Z,29.2533,-90.6633,66.5,1111122 
LUMCON,ioos:station:LUMCON:101:1,2014-12-11T03:45:00Z,29.2533,-90.6633,76.5,1111122 
LUMCON,ioos:station:LUMCON:101:1,2014-12-11T05:45:00Z,29.2533,-90.6633,66.7,1111122 
LUMCON,ioos:station:LUMCON:101:1,2014-12-11T06:45:00Z,29.2533,-90.6633,66.5,1111122 
LUMCON,ioos:station:LUMCON:101:1,2014-12-11T07:45:00Z,29.2533,-90.6633,67.9,1111122 
LUMCON,ioos:station:LUMCON:101:1,2014-12-11T08:45:00Z,29.2533,-90.6633,76.9,1111122 
LUMCON,ioos:station:LUMCON:101:1,2014-12-11T09:45:00Z,29.2533,-90.6633,69.8,1111122 
LUMCON,ioos:station:LUMCON:101:1,2014-12-11T10:45:00Z,29.2533,-90.6633,65.3,1111122 
LUMCON,ioos:station:LUMCON:101:1,2014-12-11T11:45:00Z,29.2533,-90.6633,61.0,1111122 
LUMCON,ioos:station:LUMCON:101:1,2014-12-11T12:45:00Z,29.2533,-90.6633,55.8,1111122 
LUMCON,ioos:station:LUMCON:101:1,2014-12-11T14:45:00Z,29.2533,-90.6633,52.4,1111122 
LUMCON,ioos:station:LUMCON:101:1,2014-12-11T15:45:00Z,29.2533,-90.6633,52.1,1111122 
LUMCON,ioos:station:LUMCON:101:1,2014-12-11T16:45:00Z,29.2533,-90.6633,52.4,1111122 
LUMCON,ioos:station:LUMCON:101:1,2014-12-11T17:45:00Z,29.2533,-90.6633,58.4,1111122 
LUMCON,ioos:station:LUMCON:101:1,2014-12-11T18:45:00Z,29.2533,-90.6633,61.7,1111122 
LUMCON,ioos:station:LUMCON:101:1,2014-12-11T19:45:00Z,29.2533,-90.6633,63.0,1111122 
LUMCON,ioos:station:LUMCON:101:1,2014-12-11T20:45:00Z,29.2533,-90.6633,59.8,1111122 
LUMCON,ioos:station:LUMCON:101:1,2014-12-11T21:45:00Z,29.2533,-90.6633,67.5,1111122 
LUMCON,ioos:station:LUMCON:101:1,2014-12-11T22:45:00Z,29.2533,-90.6633,71.7,1111122 
LUMCON,ioos:station:LUMCON:101:1,2014-12-11T23:45:00Z,29.2533,-90.6633,60.8,1111122 
LUMCON,ioos:station:LUMCON:101:1,2014-12-12T00:45:00Z,29.2533,-90.6633,64.0,1111122 
LUMCON,ioos:station:LUMCON:101:1,2014-12-12T01:45:00Z,29.2533,-90.6633,66.2,1111122 
LUMCON,ioos:station:LUMCON:101:1,2014-12-12T02:45:00Z,29.2533,-90.6633,73.3,1111122 
LUMCON,ioos:station:LUMCON:101:1,2014-12-12T03:45:00Z,29.2533,-90.6633,69.4,1111122 
LUMCON,ioos:station:LUMCON:101:1,2014-12-12T04:45:00Z,29.2533,-90.6633,70.8,1111122 
LUMCON,ioos:station:LUMCON:101:1,2014-12-12T06:45:00Z,29.2533,-90.6633,78.7,1111122 
LUMCON,ioos:station:LUMCON:101:1,2014-12-12T07:45:00Z,29.2533,-90.6633,79.5,1111122 
LUMCON,ioos:station:LUMCON:101:1,2014-12-12T08:45:00Z,29.2533,-90.6633,76.1,1111122 
LUMCON,ioos:station:LUMCON:101:1,2014-12-12T09:45:00Z,29.2533,-90.6633,67.4,1111122 
LUMCON,ioos:station:LUMCON:101:1,2014-12-12T10:45:00Z,29.2533,-90.6633,64.4,1111122 
LUMCON,ioos:station:LUMCON:101:1,2014-12-12T11:45:00Z,29.2533,-90.6633,61.6,1111122 
LUMCON,ioos:station:LUMCON:101:1,2014-12-12T12:45:00Z,29.2533,-90.6633,55.8,1111122 
LUMCON,ioos:station:LUMCON:101:1,2014-12-12T13:45:00Z,29.2533,-90.6633,53.6,1111122 
LUMCON,ioos:station:LUMCON:101:1,2014-12-12T14:45:00Z,29.2533,-90.6633,56.7,1111122 
LUMCON,ioos:station:LUMCON:101:1,2014-12-12T15:45:00Z,29.2533,-90.6633,56.9,1111122 
LUMCON,ioos:station:LUMCON:101:1,2014-12-12T16:30:00Z,29.2533,-90.6633,57.9,1111122 
LUMCON,ioos:station:LUMCON:101:1,2014-12-12T17:45:00Z,29.2533,-90.6633,67.0,1111122 
LUMCON,ioos:station:LUMCON:101:1,2014-12-12T18:45:00Z,29.2533,-90.6633,70.3,1111122 
LUMCON,ioos:station:LUMCON:101:1,2014-12-12T19:45:00Z,29.2533,-90.6633,73.6,1111122 
LUMCON,ioos:station:LUMCON:101:1,2014-12-12T20:45:00Z,29.2533,-90.6633,69.6,1111122 
LUMCON,ioos:station:LUMCON:101:1,2014-12-12T21:45:00Z,29.2533,-90.6633,73.7,1111122 
LUMCON,ioos:station:LUMCON:101:1,2014-12-12T22:45:00Z,29.2533,-90.6633,74.9,1111122 
LUMCON,ioos:station:LUMCON:101:1,2014-12-12T23:45:00Z,29.2533,-90.6633,77.3,1111122 
LUMCON,ioos:station:LUMCON:101:1,2014-12-13T00:45:00Z,29.2533,-90.6633,76.4,1111122 
LUMCON,ioos:station:LUMCON:101:1,2014-12-13T01:45:00Z,29.2533,-90.6633,73.1,1111122 
LUMCON,ioos:station:LUMCON:101:1,2014-12-13T02:45:00Z,29.2533,-90.6633,74.5,1111122 
LUMCON,ioos:station:LUMCON:101:1,2014-12-13T03:45:00Z,29.2533,-90.6633,76.7,1111122 
LUMCON,ioos:station:LUMCON:101:1,2014-12-13T04:45:00Z,29.2533,-90.6633,75.5,1111122 
LUMCON,ioos:station:LUMCON:101:1,2014-12-13T05:45:00Z,29.2533,-90.6633,78.4,1111122 
LUMCON,ioos:station:LUMCON:101:1,2014-12-13T06:45:00Z,29.2533,-90.6633,78.8,1111122 
LUMCON,ioos:station:LUMCON:101:1,2014-12-13T07:45:00Z,29.2533,-90.6633,76.9,1111122 
LUMCON,ioos:station:LUMCON:101:1,2014-12-13T08:45:00Z,29.2533,-90.6633,76.3,1111122 
LUMCON,ioos:station:LUMCON:101:1,2014-12-13T09:45:00Z,29.2533,-90.6633,71.6,1111122 
LUMCON,ioos:station:LUMCON:101:1,2014-12-13T10:45:00Z,29.2533,-90.6633,66.2,1111122 
LUMCON,ioos:station:LUMCON:101:1,2014-12-13T11:45:00Z,29.2533,-90.6633,64.3,1111122 
LUMCON,ioos:station:LUMCON:101:1,2014-12-13T12:45:00Z,29.2533,-90.6633,62.4,1111122 
LUMCON,ioos:station:LUMCON:101:1,2014-12-13T13:45:00Z,29.2533,-90.6633,61.4,1111122 
LUMCON,ioos:station:LUMCON:101:1,2014-12-13T14:45:00Z,29.2533,-90.6633,60.3,1111122 
LUMCON,ioos:station:LUMCON:101:1,2014-12-13T15:45:00Z,29.2533,-90.6633,62.8,1111122 
LUMCON,ioos:station:LUMCON:101:1,2014-12-13T16:45:00Z,29.2533,-90.6633,66.7,1111122 
LUMCON,ioos:station:LUMCON:101:1,2014-12-13T17:45:00Z,29.2533,-90.6633,69.2,1111122 
LUMCON,ioos:station:LUMCON:101:1,2014-12-13T18:45:00Z,29.2533,-90.6633,75.7,1111122 
LUMCON,ioos:station:LUMCON:101:1,2014-12-13T19:45:00Z,29.2533,-90.6633,80.3,1111122 
LUMCON,ioos:station:LUMCON:101:1,2014-12-13T20:45:00Z,29.2533,-90.6633,79.8,1111122 
LUMCON,ioos:station:LUMCON:101:1,2014-12-13T21:45:00Z,29.2533,-90.6633,80.2,1111122 
LUMCON,ioos:station:LUMCON:101:1,2014-12-13T22:45:00Z,29.2533,-90.6633,81.5,1111122 
LUMCON,ioos:station:LUMCON:101:1,2014-12-13T23:45:00Z,29.2533,-90.6633,81.2,1111122 
LUMCON,ioos:station:LUMCON:101:1,2014-12-14T00:45:00Z,29.2533,-90.6633,80.5,1111122 
LUMCON,ioos:station:LUMCON:101:1,2014-12-14T01:45:00Z,29.2533,-90.6633,82.6,1111122 
LUMCON,ioos:station:LUMCON:101:1,2014-12-14T02:45:00Z,29.2533,-90.6633,80.5,1111122 
LUMCON,ioos:station:LUMCON:101:1,2014-12-14T03:45:00Z,29.2533,-90.6633,75.3,1111122 
LUMCON,ioos:station:LUMCON:101:1,2014-12-14T04:45:00Z,29.2533,-90.6633,76.0,1111122 
LUMCON,ioos:station:LUMCON:101:1,2014-12-14T05:45:00Z,29.2533,-90.6633,75.0,1111122 
LUMCON,ioos:station:LUMCON:101:1,2014-12-14T06:45:00Z,29.2533,-90.6633,77.3,1111122 
LUMCON,ioos:station:LUMCON:101:1,2014-12-14T07:45:00Z,29.2533,-90.6633,77.1,1111122 
LUMCON,ioos:station:LUMCON:101:1,2014-12-14T08:45:00Z,29.2533,-90.6633,73.7,1111122 
LUMCON,ioos:station:LUMCON:101:1,2014-12-14T09:45:00Z,29.2533,-90.6633,74.9,1111122 
LUMCON,ioos:station:LUMCON:101:1,2014-12-14T10:45:00Z,29.2533,-90.6633,76.6,1111122 
LUMCON,ioos:station:LUMCON:101:1,2014-12-14T11:30:00Z,29.2533,-90.6633,75.6,1111122 
LUMCON,ioos:station:LUMCON:101:1,2014-12-14T12:45:00Z,29.2533,-90.6633,71.3,1111122 
LUMCON,ioos:station:LUMCON:101:1,2014-12-14T13:45:00Z,29.2533,-90.6633,67.5,1111122 
LUMCON,ioos:station:LUMCON:101:1,2014-12-14T14:45:00Z,29.2533,-90.6633,69.1,1111122 
LUMCON,ioos:station:LUMCON:101:1,2014-12-14T15:45:00Z,29.2533,-90.6633,68.8,1111122 
LUMCON,ioos:station:LUMCON:101:1,2014-12-14T16:45:00Z,29.2533,-90.6633,65.0,1111122 
LUMCON,ioos:station:LUMCON:101:1,2014-12-14T17:45:00Z,29.2533,-90.6633,70.2,1111122 
LUMCON,ioos:station:LUMCON:101:1,2014-12-14T18:45:00Z,29.2533,-90.6633,75.3,1111122 
LUMCON,ioos:station:LUMCON:101:1,2014-12-14T19:45:00Z,29.2533,-90.6633,76.8,1111122 
LUMCON,ioos:station:LUMCON:101:1,2014-12-14T20:45:00Z,29.2533,-90.6633,80.0,1111122 
LUMCON,ioos:station:LUMCON:101:1,2014-12-14T21:45:00Z,29.2533,-90.6633,82.8,1111122 
LUMCON,ioos:station:LUMCON:101:1,2014-12-14T22:45:00Z,29.2533,-90.6633,84.2,1111122 
LUMCON,ioos:station:LUMCON:101:1,2014-12-14T23:45:00Z,29.2533,-90.6633,85.6,1111122 
LUMCON,ioos:station:LUMCON:101:1,2014-12-15T00:45:00Z,29.2533,-90.6633,85.6,1111122 
LUMCON,ioos:station:LUMCON:101:1,2014-12-15T01:45:00Z,29.2533,-90.6633,85.9,1111122 
LUMCON,ioos:station:LUMCON:101:1,2014-12-15T02:45:00Z,29.2533,-90.6633,86.2,1111122 
LUMCON,ioos:station:LUMCON:101:1,2014-12-15T03:45:00Z,29.2533,-90.6633,85.9,1111122 
LUMCON,ioos:station:LUMCON:101:1,2014-12-15T04:45:00Z,29.2533,-90.6633,86.4,1111122 
LUMCON,ioos:station:LUMCON:101:1,2014-12-15T05:45:00Z,29.2533,-90.6633,87.6,1111122 
LUMCON,ioos:station:LUMCON:101:1,2014-12-15T06:45:00Z,29.2533,-90.6633,87.7,1111122 
LUMCON,ioos:station:LUMCON:101:1,2014-12-15T07:45:00Z,29.2533,-90.6633,88.8,1111122 
LUMCON,ioos:station:LUMCON:101:1,2014-12-15T08:45:00Z,29.2533,-90.6633,86.9,1111122 
LUMCON,ioos:station:LUMCON:101:1,2014-12-15T09:45:00Z,29.2533,-90.6633,85.9,1111122 
LUMCON,ioos:station:LUMCON:101:1,2014-12-15T10:45:00Z,29.2533,-90.6633,82.8,1111122 
LUMCON,ioos:station:LUMCON:101:1,2014-12-15T11:45:00Z,29.2533,-90.6633,80.7,1111122 
LUMCON,ioos:station:LUMCON:101:1,2014-12-15T12:45:00Z,29.2533,-90.6633,73.5,1111122 
LUMCON,ioos:station:LUMCON:101:1,2014-12-15T13:45:00Z,29.2533,-90.6633,71.2,1111122 
LUMCON,ioos:station:LUMCON:101:1,2014-12-15T14:45:00Z,29.2533,-90.6633,76.5,1111122 
LUMCON,ioos:station:LUMCON:101:1,2014-12-15T15:45:00Z,29.2533,-90.6633,77.1,1111122 
LUMCON,ioos:station:LUMCON:101:1,2014-12-15T16:45:00Z,29.2533,-90.6633,77.4,1111122 
LUMCON,ioos:station:LUMCON:101:1,2014-12-15T17:45:00Z,29.2533,-90.6633,79.6,1111122 
LUMCON,ioos:station:LUMCON:101:1,2014-12-15T18:45:00Z,29.2533,-90.6633,82.3,1111122 
LUMCON,ioos:station:LUMCON:101:1,2014-12-15T19:45:00Z,29.2533,-90.6633,85.6,1111122 
LUMCON,ioos:station:LUMCON:101:1,2014-12-15T20:45:00Z,29.2533,-90.6633,88.1,1111122 
LUMCON,ioos:station:LUMCON:101:1,2014-12-15T21:45:00Z,29.2533,-90.6633,88.7,1111122 
LUMCON,ioos:station:LUMCON:101:1,2014-12-15T22:45:00Z,29.2533,-90.6633,87.7,1111122 
LUMCON,ioos:station:LUMCON:101:1,2014-12-15T23:45:00Z,29.2533,-90.6633,86.0,1111122 
LUMCON,ioos:station:LUMCON:101:1,2014-12-16T01:45:00Z,29.2533,-90.6633,88.2,1111122 
LUMCON,ioos:station:LUMCON:101:1,2014-12-16T02:45:00Z,29.2533,-90.6633,88.5,1111122 
LUMCON,ioos:station:LUMCON:101:1,2014-12-16T03:45:00Z,29.2533,-90.6633,86.5,1111122 
LUMCON,ioos:station:LUMCON:101:1,2014-12-16T04:45:00Z,29.2533,-90.6633,84.4,1111122 
LUMCON,ioos:station:LUMCON:101:1,2014-12-16T05:45:00Z,29.2533,-90.6633,66.0,1111122 
LUMCON,ioos:station:LUMCON:101:1,2014-12-16T10:45:00Z,29.2533,-90.6633,40.1,1111122 
LUMCON,ioos:station:LUMCON:101:1,2014-12-16T11:45:00Z,29.2533,-90.6633,36.9,1111122 
LUMCON,ioos:station:LUMCON:101:1,2014-12-16T12:45:00Z,29.2533,-90.6633,38.1,1111122 
LUMCON,ioos:station:LUMCON:101:1,2014-12-16T13:45:00Z,29.2533,-90.6633,35.1,1111122 
LUMCON,ioos:station:LUMCON:101:1,2014-12-16T14:45:00Z,29.2533,-90.6633,33.1,1111122 
LUMCON,ioos:station:LUMCON:101:1,2014-12-16T15:45:00Z,29.2533,-90.6633,34.4,1111122 
LUMCON,ioos:station:LUMCON:101:1,2014-12-16T16:45:00Z,29.2533,-90.6633,41.5,1111122 
LUMCON,ioos:station:LUMCON:101:1,2014-12-16T17:45:00Z,29.2533,-90.6633,56.5,1111122 
LUMCON,ioos:station:LUMCON:101:1,2014-12-16T18:45:00Z,29.2533,-90.6633,64.8,1111122 
LUMCON,ioos:station:LUMCON:101:1,2014-12-16T19:45:00Z,29.2533,-90.6633,69.7,1111122 
LUMCON,ioos:station:LUMCON:101:1,2014-12-16T20:45:00Z,29.2533,-90.6633,69.7,1111122 
LUMCON,ioos:station:LUMCON:101:1,2014-12-16T21:45:00Z,29.2533,-90.6633,53.8,1111122 
LUMCON,ioos:station:LUMCON:101:1,2014-12-16T22:45:00Z,29.2533,-90.6633,57.2,1111122 
LUMCON,ioos:station:LUMCON:101:1,2014-12-16T23:45:00Z,29.2533,-90.6633,56.7,1111122 
LUMCON,ioos:station:LUMCON:101:1,2014-12-17T00:45:00Z,29.2533,-90.6633,65.9,1111122 
LUMCON,ioos:station:LUMCON:101:1,2014-12-17T01:45:00Z,29.2533,-90.6633,66.9,1111122 
LUMCON,ioos:station:LUMCON:101:1,2014-12-17T02:45:00Z,29.2533,-90.6633,70.2,1111122 
LUMCON,ioos:station:LUMCON:101:1,2014-12-17T03:45:00Z,29.2533,-90.6633,70.0,1111122 
LUMCON,ioos:station:LUMCON:101:1,2014-12-17T04:45:00Z,29.2533,-90.6633,71.7,1111122 
LUMCON,ioos:station:LUMCON:101:1,2014-12-17T05:45:00Z,29.2533,-90.6633,65.7,1111122 
LUMCON,ioos:station:LUMCON:101:1,2014-12-17T06:45:00Z,29.2533,-90.6633,69.5,1111122 
LUMCON,ioos:station:LUMCON:101:1,2014-12-17T07:45:00Z,29.2533,-90.6633,72.8,1111122 